Location: Clarion
(42.7316°N, 93.7330°W)
Time: 02:14:18
(UTC+00:00)

Cosmos 2279 Rocket - Pass Details

Date: 22 April 2026
Orbit: 963 x 977 km, 82.9° (Epoch: 20 May)

Event Time Altitude Azimuth Distance (km) Brightness Sun altitude
Exits shadow 08:02:09 87° 308° (NW) 979 3.8 -29.7°
Drops below altitude 10° 08:08:23 10° 7° (N) 2,730 7.1 -29.0°
Sets 08:10:54 0° 8° (N) 3,683 8.0 -28.8°
